Flag for Turkey Weather past 2 weeks in Mersin, Turkey

Now
84 °F

Passing clouds.


Feels Like: 83 °F
Forecast: 57 / 76 °F
Wind: 8 mph from North

Location: Adana / Sakirpasa

Current Time: May 25, 2015 at 1:40:49 PM

Latest Report: May 25, 2015 at 12:50 PM


Visibility: N/A

Pressure: 29.86 "Hg

Humidity: 40%

Dew point: 57 °F

Location of MersinLocation

Historic Weather in Mersin — Graph

°F

Mersin temperature yesterday

Maximum temperature yesterday: 82 °F (at 11:20 AM)
Minimum temperature yesterday: 68 °F (at 12:50 AM)
Average temperature yesterday: 74 °F

Past Weeks' High & Low Weather Summary

 TemperatureHumidityPressure
High100 °F (May 19, 2:20 PM)94% (May 14, 5:50 AM)30.18 "Hg (May 14, 5:50 AM)
Low59 °F (May 12, 3:50 AM)12% (May 19, 4:20 PM)29.68 "Hg (May 10, 2:50 PM)
Average74 °F59%29.88 "Hg
* Reported May 10 12:20 PM — May 25 12:20 PM, Mersin, Weather by CustomWeather, © 2015

Note: Actual official high and low records may vary slightly from our data, if they occured in-between our weather recording intervals... More about our weather records

Advertising

Mersin weather history for previous 24 hours

 ConditionsComfort  
Time TempWeatherWind HumidityBarometerVisibility
12:20 PM
Mon, May 25
82 °FPassing clouds.9 mph42%29.86 "HgN/A
11:50 AM81 °FPassing clouds.5 mph48%29.86 "HgN/A
11:20 AM81 °FScattered clouds.7 mph48%29.89 "HgN/A
10:50 AM81 °FScattered clouds.5 mph51%29.89 "HgN/A
10:20 AM79 °FScattered clouds.2 mph54%29.89 "HgN/A
9:50 AM79 °FScattered clouds.3 mph54%29.89 "HgN/A
9:20 AM77 °FScattered clouds.5 mph61%29.89 "HgN/A
8:50 AM77 °FScattered clouds.3 mph65%29.89 "HgN/A
8:20 AM75 °FScattered clouds.1 mph69%29.89 "HgN/A
7:50 AM72 °FPassing clouds.2 mph83%29.89 "HgN/A
7:20 AM70 °FPassing clouds.3 mph88%29.89 "Hg4 mi
6:50 AM70 °FPassing clouds.2 mph88%29.86 "Hg4 mi
6:20 AM66 °FPassing clouds.No wind94%29.86 "Hg4 mi
5:50 AM66 °FPassing clouds.No wind88%29.86 "HgN/A
5:20 AM64 °FPassing clouds.No wind88%29.86 "Hg4 mi
4:50 AM66 °FPassing clouds.No wind88%29.83 "HgN/A
4:20 AM64 °FPassing clouds.No wind88%29.83 "HgN/A
3:50 AM66 °FPassing clouds.No wind88%29.86 "HgN/A
3:20 AM66 °FPassing clouds.No wind88%29.86 "HgN/A
2:50 AM66 °FPassing clouds.No wind88%29.86 "HgN/A
2:20 AM68 °FPassing clouds.No wind88%29.86 "HgN/A
1:50 AM68 °FPassing clouds.1 mph88%29.86 "HgN/A
1:20 AM68 °FPassing clouds.3 mph88%29.89 "HgN/A
12:50 AM68 °FPassing clouds.No wind88%29.89 "HgN/A
12:20 AM70 °FPassing clouds.No wind83%29.89 "HgN/A
11:50 PM
Sun, May 24
70 °FPassing clouds.No wind83%29.89 "HgN/A
11:20 PM70 °FPassing clouds.2 mph83%29.89 "HgN/A
10:50 PM70 °FPassing clouds.2 mph83%29.89 "HgN/A
10:20 PM70 °FPassing clouds.No wind83%29.92 "HgN/A
9:50 PM72 °FPassing clouds.No wind78%29.92 "HgN/A
9:20 PM72 °FPassing clouds.No wind78%29.89 "HgN/A
8:50 PM72 °FPassing clouds.2 mph78%29.89 "HgN/A
8:20 PM73 °FScattered clouds.3 mph74%29.89 "HgN/A
7:50 PM73 °FScattered clouds.7 mph74%29.89 "HgN/A
7:20 PM73 °FPartly sunny.9 mph74%29.89 "HgN/A
6:50 PM75 °FPartly sunny.10 mph65%29.89 "HgN/A
6:20 PM77 °FPartly sunny.12 mph61%29.89 "HgN/A
5:50 PM77 °FPartly sunny.12 mph61%29.86 "HgN/A
5:20 PM79 °FPartly sunny.13 mph61%29.86 "HgN/A
4:50 PM79 °FBroken clouds.14 mph61%29.89 "HgN/A
4:20 PM82 °FBroken clouds.7 mph48%29.86 "HgN/A
3:50 PM81 °FBroken clouds.7 mph54%29.86 "HgN/A
3:20 PM82 °FScattered clouds.7 mph51%29.86 "HgN/A
2:50 PM81 °FBroken clouds.8 mph54%29.89 "HgN/A
2:20 PM79 °FBroken clouds.9 mph58%29.89 "HgN/A
1:50 PM81 °FBroken clouds.10 mph58%29.89 "HgN/A
1:20 PM79 °FBroken clouds.12 mph58%29.89 "HgN/A
Weather by CustomWeather, © 2015

See weather overviewHow to use our weather pages